W4RJF Weather Reports


Display with metric or nautical units.
time (UTC)temp
F
wind
direction
speed
MPH
gust
MPH
rain 1hr
in
rain 24hr
in
rain mn
in
humidity
%
barometer
mb
20260905193506 95 49 0.0 2.0 0.00 0.00 0.00 46 1009.7
20260905193016 96 331 0.0 2.0 0.00 0.00 0.00 43 1009.5
20260905192511 96 127 0.0 2.0 0.00 0.00 0.00 43 1009.3
20260905192009 97 243 0.0 1.0 0.00 0.00 0.00 45 1009.3
20260905191521 97 46 0.0 2.0 0.00 0.00 0.00 45 1009.2
20260905191011 97 146 0.0 2.0 0.00 0.00 0.00 44 1009.3
20260905190514 97 263 0.0 2.0 0.00 0.00 0.00 43 1009.3
20260905190032 96 275 0.0 2.0 0.00 0.00 0.00 46 1009.5
20260905185514 97 254 0.0 4.0 0.00 0.00 0.00 43 1009.4
20260905185013 97 35 1.0 4.0 0.00 0.00 0.00 44 1009.4
20260905184541 98 304 1.0 3.0 0.00 0.00 0.00 43 1009.4
20260905184014 98 89 0.0 3.0 0.00 0.00 0.00 45 1009.5
20260905183515 97 325 0.0 4.0 0.00 0.00 0.00 46 1009.6
20260905183012 96 336 1.0 4.0 0.00 0.00 0.00 45 1009.8
20260905182507 96 266 0.0 3.0 0.00 0.00 0.00 45 1010.0
20260905182007 96 336 1.0 3.0 0.00 0.00 0.00 45 1010.1
20260905181518 95 273 0.0 2.0 0.00 0.00 0.00 48 1010.1
20260905181008 95 328 1.0 3.0 0.00 0.00 0.00 48 1010.1
20260905180512 95 340 0.0 3.0 0.00 0.00 0.00 48 1010.3
20260905180027 96 340 1.0 5.0 0.00 0.00 0.00 47 1010.4
20260905175512 97 342 2.0 5.0 0.00 0.00 0.00 46 1010.6
20260905175016 96 338 2.0 5.0 0.00 0.00 0.00 47 1010.7
20260905174540 95 290 0.0 4.0 0.00 0.00 0.00 51 1010.8
20260905174013 95 333 1.0 4.0 0.00 0.00 0.00 51 1011.0
20260905173515 95 349 1.0 4.0 0.00 0.00 0.00 49 1011.2
20260905173037 95 240 1.0 4.0 0.00 0.00 0.00 50 1011.3
20260905172514 94 54 0.0 9.0 0.00 0.00 0.00 51 1011.4
20260905172006 94 346 1.0 9.0 0.00 0.00 0.00 51 1011.5
20260905171520 94 197 0.0 8.0 0.00 0.00 0.00 51 1011.5
20260905171010 94 326 0.0 6.0 0.00 0.00 0.00 52 1011.6
20260905170509 94 231 2.0 5.0 0.00 0.00 0.00 53 1011.6
20260905170023 93 360 0.0 4.0 0.00 0.00 0.00 53 1011.7
20260905165511 93 75 0.0 4.0 0.00 0.00 0.00 54 1011.6
20260905165013 93 20 0.0 4.0 0.00 0.00 0.00 55 1011.8
20260905164530 93 344 1.0 3.0 0.00 0.00 0.00 54 1011.8
20260905164014 92 346 0.0 3.0 0.00 0.00 0.00 55 1011.8
20260905163515 92 32 0.0 3.0 0.00 0.00 0.00 55 1011.9
20260905163032 92 348 1.0 2.0 0.00 0.00 0.00 54 1012.0
20260905162516 92 163 0.0 2.0 0.00 0.00 0.00 54 1012.1
20260905162017 92 103 0.0 2.0 0.00 0.00 0.00 54 1012.2
20260905161534 91 119 0.0 2.0 0.00 0.00 0.00 56 1012.2
20260905161018 91 95 0.0 6.0 0.00 0.00 0.00 58 1012.2
20260905160509 90 261 0.0 6.0 0.00 0.00 0.00 58 1012.3
20260905160022 90 200 0.0 3.0 0.00 0.00 0.00 60 1012.5
20260905155511 90 261 0.0 3.0 0.00 0.00 0.00 62 1012.4
20260905155011 89 234 0.0 3.0 0.00 0.00 0.00 62 1012.7
20260905154528 89 317 0.0 2.0 0.00 0.00 0.00 62 1012.7
20260905154014 89 101 0.0 4.0 0.00 0.00 0.00 63 1012.7
20260905153513 89 22 1.0 4.0 0.00 0.00 0.00 62 1012.8
20260905153032 89 352 0.0 3.0 0.00 0.00 0.00 64 1012.7
20260905152516 88 309 0.0 2.0 0.00 0.00 0.00 64 1012.8
20260905152016 88 99 0.0 2.0 0.00 0.00 0.00 65 1012.7
20260905151534 88 39 0.0 2.0 0.00 0.00 0.00 64 1012.8
20260905151018 88 343 1.0 4.0 0.00 0.00 0.00 64 1012.9
20260905150519 88 316 2.0 4.0 0.00 0.00 0.00 67 1012.9
20260905150037 87 77 0.0 4.0 0.00 0.00 0.00 68 1012.7
20260905145509 87 15 1.0 4.0 0.00 0.00 0.00 68 1012.8
20260905145012 87 241 0.0 1.0 0.00 0.00 0.00 68 1012.9
20260905144527 86 220 0.0 0.0 0.00 0.00 0.00 69 1012.8
20260905144015 86 239 0.0 2.0 0.00 0.00 0.00 71 1012.7
20260905143512 85 239 0.0 2.0 0.00 0.00 0.00 70 1012.8
20260905143031 85 167 0.0 1.0 0.00 0.00 0.00 71 1012.9
20260905142514 85 200 0.0 1.0 0.00 0.00 0.00 71 1012.9
20260905142015 84 234 0.0 1.0 0.00 0.00 0.00 73 1012.9
20260905141531 84 266 0.0 0.0 0.00 0.00 0.00 75 1012.8
20260905141017 84 199 0.0 0.0 0.00 0.00 0.00 77 1012.8
20260905140516 83 186 0.0 2.0 0.00 0.00 0.00 76 1012.7
20260905140034 83 227 0.0 2.0 0.00 0.00 0.00 76 1012.9
20260905135518 83 213 0.0 4.0 0.00 0.00 0.00 77 1012.8
20260905135018 83 317 0.0 4.0 0.00 0.00 0.00 78 1012.7
20260905134522 82 243 0.0 2.0 0.00 0.00 0.00 78 1012.9
20260905134013 82 351 0.0 2.0 0.00 0.00 0.00 80 1012.9
20260905133511 82 184 0.0 2.0 0.00 0.00 0.00 81 1012.9
20260905133028 81 91 0.0 0.0 0.00 0.00 0.00 81 1012.9
20260905132512 81 179 0.0 2.0 0.00 0.00 0.00 81 1012.9
20260905132016 81 178 0.0 2.0 0.00 0.00 0.00 83 1012.8
20260905131546 80 227 0.0 2.0 0.00 0.00 0.00 83 1012.8
20260905131016 80 200 0.0 2.0 0.00 0.00 0.00 84 1012.9
20260905130516 80 215 0.0 2.0 0.00 0.00 0.00 84 1012.9
20260905130036 79 217 0.0 1.0 0.00 0.00 0.00 85 1013.0
20260905125518 78 217 0.0 0.0 0.00 0.00 0.00 86 1013.0
20260905125015 78 176 0.0 0.0 0.00 0.00 0.00 87 1013.0
20260905124539 77 194 0.0 0.0 0.00 0.00 0.00 88 1013.2
20260905124017 77 194 0.0 0.0 0.00 0.00 0.00 89 1013.0
20260905123514 76 194 0.0 0.0 0.00 0.00 0.00 89 1013.2
20260905123025 76 194 0.0 0.0 0.00 0.00 0.00 89 1013.1
20260905122514 75 194 0.0 0.0 0.00 0.00 0.00 90 1013.1
20260905122013 75 194 0.0 0.0 0.00 0.00 0.00 90 1013.0
20260905121534 74 194 0.0 0.0 0.00 0.00 0.00 90 1013.0
20260905121017 74 194 0.0 0.0 0.00 0.00 0.00 90 1013.0
20260905120514 74 194 0.0 0.0 0.00 0.00 0.00 90 1013.0
20260905120034 74 194 0.0 0.0 0.00 0.00 0.00 90 1013.0
20260905115517 73 194 0.0 0.0 0.00 0.00 0.00 90 1013.0
20260905115019 73 194 0.0 0.0 0.00 0.00 0.00 90 1013.0
20260905114542 73 194 0.0 0.0 0.00 0.00 0.00 90 1013.0
20260905114016 73 194 0.0 0.0 0.00 0.00 0.00 91 1012.9
20260905113510 72 194 0.0 0.0 0.00 0.00 0.00 91 1012.8
20260905113004 72 194 0.0 0.0 0.00 0.00 0.00 91 1012.5
20260905112503 72 194 0.0 0.0 0.00 0.00 0.00 91 1012.4
20260905112002 72 194 0.0 0.0 0.00 0.00 0.00 91 1012.6
20260905111510 72 194 0.0 0.0 0.00 0.00 0.00 90 1012.6
20260905111004 72 194 0.0 0.0 0.00 0.00 0.00 90 1012.7
20260905110504 72 194 0.0 0.0 0.00 0.00 0.00 90 1012.7
20260905110012 72 194 0.0 0.0 0.00 0.00 0.00 90 1012.5
20260905105506 72 194 0.0 0.0 0.00 0.00 0.00 90 1012.5
20260905105008 72 194 0.0 0.0 0.00 0.00 0.00 90 1012.3
20260905104516 72 194 0.0 0.0 0.00 0.00 0.00 90 1012.2
20260905104009 72 194 0.0 0.0 0.00 0.00 0.00 89 1012.2
20260905103512 72 194 0.0 0.0 0.00 0.00 0.00 89 1012.1
20260905103031 72 194 0.0 0.0 0.00 0.00 0.00 89 1012.1
20260905102511 72 194 0.0 0.0 0.00 0.00 0.00 90 1012.0
20260905102002 72 194 0.0 0.0 0.00 0.00 0.00 89 1012.0
20260905101506 72 194 0.0 0.0 0.00 0.00 0.00 90 1011.9
20260905101003 72 194 0.0 0.0 0.00 0.00 0.00 90 1012.0
20260905100503 72 194 0.0 0.0 0.00 0.00 0.00 90 1011.8
20260905100010 72 194 0.0 0.0 0.00 0.00 0.00 89 1011.7
20260905095504 73 194 0.0 0.0 0.00 0.00 0.00 89 1011.8
20260905095004 73 194 0.0 0.0 0.00 0.00 0.00 89 1011.9
20260905094512 73 194 0.0 0.0 0.00 0.00 0.00 89 1012.0
20260905094011 73 194 0.0 0.0 0.00 0.00 0.00 89 1012.0
20260905093508 73 194 0.0 0.0 0.00 0.00 0.00 88 1012.0
20260905093016 73 194 0.0 0.0 0.00 0.00 0.00 88 1011.9
20260905092509 73 194 0.0 0.0 0.00 0.00 0.00 88 1011.9
20260905092013 73 194 0.0 0.0 0.00 0.00 0.00 88 1012.1
20260905091527 73 194 0.0 0.0 0.00 0.00 0.00 88 1012.1
20260905091004 73 194 0.0 0.0 0.00 0.00 0.00 88 1012.1
20260905090505 73 194 0.0 0.0 0.00 0.00 0.00 87 1012.1
20260905090006 73 194 0.0 0.0 0.00 0.00 0.00 88 1012.2
20260905085508 73 194 0.0 0.0 0.00 0.00 0.00 87 1012.2
20260905085004 73 194 0.0 0.0 0.00 0.00 0.00 87 1012.3
20260905084525 73 194 0.0 0.0 0.00 0.00 0.00 87 1012.3
20260905084004 73 194 0.0 0.0 0.00 0.00 0.00 87 1012.3
20260905083509 74 194 0.0 0.0 0.00 0.00 0.00 86 1012.5
20260905083021 74 194 0.0 0.0 0.00 0.00 0.00 86 1012.5
20260905082509 74 194 0.0 0.0 0.00 0.00 0.00 87 1012.5
20260905082010 74 194 0.0 0.0 0.00 0.00 0.00 86 1012.5
20260905081527 74 194 0.0 0.0 0.00 0.00 0.00 86 1012.5
20260905081013 74 194 0.0 0.0 0.00 0.00 0.00 85 1012.4
20260905080513 74 194 0.0 0.0 0.00 0.00 0.00 85 1012.5
20260905080027 74 194 0.0 0.0 0.00 0.00 0.00 85 1012.5
20260905075503 74 194 0.0 0.0 0.00 0.00 0.00 85 1012.6
20260905075005 74 194 0.0 0.0 0.00 0.00 0.00 85 1012.8
20260905074510 74 194 0.0 0.0 0.00 0.00 0.00 86 1012.9
20260905074007 74 194 0.0 0.0 0.00 0.00 0.00 85 1012.8
20260905073509 74 194 0.0 0.0 0.00 0.00 0.00 85 1012.9
20260905073018 74 194 0.0 0.0 0.00 0.00 0.00 85 1012.9
20260905072506 74 194 0.0 0.0 0.00 0.00 0.00 85 1012.9
20260905072009 74 194 0.0 0.0 0.00 0.00 0.00 85 1012.9
20260905071524 74 194 0.0 0.0 0.00 0.00 0.00 85 1013.0
20260905071011 74 194 0.0 0.0 0.00 0.00 0.00 85 1013.1
20260905070513 74 194 0.0 0.0 0.00 0.00 0.00 85 1013.3
20260905070029 74 194 0.0 0.0 0.00 0.00 0.00 85 1013.3
20260905065514 75 194 0.0 0.0 0.00 0.00 0.00 84 1013.3
20260905065014 75 194 0.0 0.0 0.00 0.00 0.00 84 1013.4
20260905064506 75 194 0.0 0.0 0.00 0.00 0.00 85 1013.5
20260905064005 74 194 0.0 0.0 0.00 0.00 0.00 84 1013.6
20260905063502 74 194 0.0 0.0 0.00 0.00 0.00 84 1013.5
20260905063012 75 194 0.0 0.0 0.00 0.00 0.00 84 1013.6
20260905062506 75 194 0.0 0.0 0.00 0.00 0.00 85 1013.8
20260905062007 75 194 0.0 0.0 0.00 0.00 0.00 84 1013.9
20260905061520 75 194 0.0 0.0 0.00 0.00 0.00 83 1013.9
20260905061007 75 194 0.0 0.0 0.00 0.00 0.00 83 1014.0
20260905060511 75 194 0.0 0.0 0.00 0.00 0.00 83 1014.2
20260905060028 75 194 0.0 0.0 0.00 0.00 0.00 82 1014.2
20260905055512 75 194 0.0 0.0 0.00 0.00 0.00 82 1014.3
20260905055016 75 194 0.0 0.0 0.00 0.00 0.00 83 1014.2
20260905054530 75 194 0.0 0.0 0.00 0.00 0.00 82 1014.1
20260905054014 75 194 0.0 0.0 0.00 0.00 0.00 83 1014.2
20260905053516 75 194 0.0 0.0 0.00 0.00 0.00 83 1014.2
20260905053010 75 194 0.0 0.0 0.00 0.00 0.00 83 1014.3
20260905052505 75 194 0.0 0.0 0.00 0.00 0.00 83 1014.3
20260905052018 75 194 0.0 0.0 0.00 0.00 0.00 82 1014.4
20260905051526 75 194 0.0 0.0 0.00 0.00 0.00 82 1014.7
20260905051007 75 194 0.0 0.0 0.00 0.00 0.00 82 1014.7
20260905050508 76 194 0.0 0.0 0.00 0.00 0.00 81 1014.6
20260905050023 76 194 0.0 0.0 0.00 0.00 0.00 81 1014.7
20260905045513 76 194 0.0 0.0 0.00 0.00 0.00 80 1014.7
20260905045013 76 194 0.0 0.0 0.00 0.00 0.00 80 1014.7
20260905044528 76 194 0.0 0.0 0.00 0.00 0.00 81 1014.7
20260905044018 76 194 0.0 0.0 0.00 0.00 0.00 81 1014.7
20260905043516 76 194 0.0 0.0 0.00 0.00 0.00 80 1014.9
20260905043030 76 194 0.0 0.0 0.00 0.00 0.00 80 1015.0
20260905042514 76 194 0.0 0.0 0.00 0.00 0.00 80 1015.1
20260905042005 76 194 0.0 0.0 0.00 0.00 0.00 80 1015.2
20260905041517 76 194 0.0 2.0 0.00 0.00 0.00 79 1015.2
20260905041008 76 194 0.0 2.0 0.00 0.00 0.00 79 1015.2
20260905040507 76 194 0.0 2.0 0.00 0.00 0.00 79 1015.4
20260905040023 76 194 0.0 2.0 0.00 0.00 0.00 79 1015.4
20260905035508 77 197 0.0 2.0 0.00 0.00 0.00 79 1015.6
20260905035009 77 197 0.0 2.0 0.00 0.00 0.00 79 1015.6
20260905034529 77 197 0.0 2.0 0.00 0.00 0.00 79 1015.5
20260905034011 77 197 0.0 2.0 0.00 0.00 0.00 79 1015.4
20260905033513 77 194 1.0 2.0 0.00 0.00 0.00 79 1015.3
20260905033028 77 200 0.0 2.0 0.00 0.00 0.00 79 1015.5
20260905032516 77 189 0.0 3.0 0.00 0.00 0.00 79 1015.5
20260905032018 77 197 2.0 3.0 0.00 0.00 0.00 79 1015.3
20260905031536 78 200 0.0 2.0 0.00 0.00 0.00 79 1015.4
20260905031005 78 198 1.0 2.0 0.00 0.00 0.00 79 1015.6
20260905030508 78 202 0.0 3.0 0.00 0.00 0.00 78 1015.7
20260905030026 78 195 0.0 3.0 0.00 0.00 0.00 78 1015.9
20260905025517 78 178 0.0 2.0 0.00 0.00 0.00 78 1015.7
20260905025012 78 202 0.0 2.0 0.00 0.00 0.00 78 1015.7
20260905024526 78 194 0.0 2.0 0.00 0.00 0.00 77 1015.7
20260905024013 78 194 0.0 3.0 0.00 0.00 0.00 77 1015.8
20260905023513 79 173 0.0 3.0 0.00 0.00 0.00 76 1015.6
20260905023031 79 174 0.0 2.0 0.00 0.00 0.00 76 1015.7
20260905022515 80 97 0.0 2.0 0.00 0.00 0.00 75 1015.8
20260905022015 80 98 0.0 7.0 0.00 0.00 0.00 73 1016.2
20260905021531 82 99 1.0 7.0 0.00 0.00 0.00 72 1016.0
20260905021017 85 111 2.0 6.0 0.00 0.00 0.00 70 1015.9
20260905020516 86 70 2.0 5.0 0.00 0.00 0.00 73 1015.7
20260905020004 86 89 0.0 1.0 0.00 0.00 0.00 73 1015.1
20260905015504 86 202 0.0 0.0 0.00 0.00 0.00 73 1014.4
20260905015003 86 202 0.0 0.0 0.00 0.00 0.00 73 1014.1
20260905014507 86 202 0.0 0.0 0.00 0.00 0.00 73 1014.1
20260905014002 86 202 0.0 0.0 0.00 0.00 0.00 73 1014.4
20260905013503 86 202 0.0 0.0 0.00 0.00 0.00 73 1014.5
20260905013004 86 202 0.0 0.0 0.00 0.00 0.00 73 1014.8
20260905012503 86 202 0.0 0.0 0.00 0.00 0.00 73 1015.1
20260905012002 87 202 0.0 0.0 0.00 0.00 0.00 72 1014.9
20260905011505 86 202 0.0 0.0 0.00 0.00 0.00 71 1014.7
20260905011004 87 202 0.0 0.0 0.00 0.00 0.00 71 1014.4
20260905010506 87 202 0.0 0.0 0.00 0.00 0.00 71 1014.1
20260905010004 87 202 0.0 1.0 0.00 0.00 0.00 71 1013.8
20260905005503 87 202 0.0 1.0 0.00 0.00 0.00 70 1013.4
20260905005004 87 200 0.0 2.0 0.00 0.00 0.00 70 1013.2
20260905004507 87 200 0.0 1.0 0.00 0.00 0.00 69 1012.9
20260905004002 87 200 0.0 2.0 0.00 0.00 0.00 69 1012.8
20260905003502 88 200 0.0 2.0 0.00 0.00 0.00 69 1012.7
20260905003004 88 210 0.0 2.0 0.00 0.00 0.00 69 1012.9
20260905002504 88 211 0.0 0.0 0.00 0.00 0.00 68 1013.0
20260905002003 88 211 0.0 0.0 0.00 0.00 0.00 68 1013.0
20260905001505 88 211 0.0 1.0 0.00 0.00 0.00 68 1013.1
20260905001004 88 204 0.0 1.0 0.00 0.00 0.00 68 1013.1
20260905000504 88 203 0.0 2.0 0.00 0.00 0.00 68 1013.1
20260905000011 89 197 0.0 2.0 0.00 0.00 0.00 67 1013.2
20260904235503 89 210 0.0 0.0 0.00 0.00 0.00 67 1013.3
20260904235005 89 210 0.0 0.0 0.00 0.00 0.00 67 1013.3
20260904234510 89 210 0.0 2.0 0.00 0.00 0.00 67 1013.4
20260904234003 89 210 0.0 2.0 0.00 0.00 0.00 66 1013.2
20260904233505 90 210 0.0 2.0 0.00 0.00 0.00 65 1013.4
20260904233007 90 223 0.0 2.0 0.00 0.00 0.00 65 1013.3
20260904232504 90 224 0.0 2.0 0.00 0.00 0.00 65 1013.3
20260904232003 90 198 0.0 2.0 0.00 0.00 0.00 64 1013.4
20260904231505 90 215 0.0 2.0 0.00 0.00 0.00 64 1013.2
20260904231003 90 211 0.0 1.0 0.00 0.00 0.00 64 1013.3
20260904230504 91 199 0.0 2.0 0.00 0.00 0.00 64 1013.1
20260904230008 91 199 0.0 2.0 0.00 0.00 0.00 62 1012.8
20260904225504 92 215 0.0 2.0 0.00 0.00 0.00 62 1012.8
20260904225004 92 227 0.0 2.0 0.00 0.00 0.00 62 1012.8
20260904224509 92 197 0.0 2.0 0.00 0.00 0.00 61 1013.0
20260904224006 93 215 0.0 4.0 0.00 0.00 0.00 60 1013.1
20260904223503 93 232 0.0 4.0 0.00 0.00 0.00 60 1012.9
20260904223010 93 245 0.0 2.0 0.00 0.00 0.00 59 1012.9
20260904222503 93 212 0.0 2.0 0.00 0.00 0.00 58 1012.9
20260904222003 93 217 0.0 2.0 0.00 0.00 0.00 57 1012.8
20260904221509 94 234 1.0 4.0 0.00 0.00 0.00 57 1013.0
20260904221005 94 205 0.0 4.0 0.00 0.00 0.00 56 1013.0
20260904220502 94 265 1.0 2.0 0.00 0.00 0.00 58 1013.1
20260904220009 94 237 1.0 3.0 0.00 0.00 0.00 59 1013.2
20260904215502 94 207 1.0 4.0 0.00 0.00 0.00 58 1013.1
20260904215001 94 194 2.0 4.0 0.00 0.00 0.00 59 1013.2
20260904214517 94 5 0.0 3.0 0.00 0.00 0.00 58 1013.3
20260904214009 94 225 1.0 3.0 0.00 0.00 0.00 57 1013.3
20260904213506 94 217 0.0 3.0 0.00 0.00 0.00 58 1013.2
20260904213011 94 230 0.0 5.0 0.00 0.00 0.00 57 1013.1
20260904212506 94 271 0.0 5.0 0.00 0.00 0.00 57 1013.0
20260904212008 94 184 1.0 4.0 0.00 0.00 0.00 57 1013.2
20260904211514 94 255 1.0 3.0 0.00 0.00 0.00 57 1013.0
20260904211005 94 253 1.0 3.0 0.00 0.00 0.00 56 1012.9
20260904210505 94 209 1.0 4.0 0.00 0.00 0.00 57 1012.9
20260904210010 94 244 0.0 5.0 0.00 0.00 0.00 56 1012.9
20260904205506 95 185 2.0 5.0 0.00 0.00 0.00 56 1012.9
20260904205002 95 191 1.0 4.0 0.00 0.00 0.00 56 1012.9
20260904204510 94 195 2.0 4.0 0.00 0.00 0.00 57 1012.7
20260904204005 94 238 1.0 5.0 0.00 0.00 0.00 56 1012.8
20260904203507 95 209 1.0 5.0 0.00 0.00 0.00 56 1012.9
20260904203010 95 187 1.0 3.0 0.00 0.00 0.00 58 1013.0
20260904202506 94 215 0.0 5.0 0.00 0.00 0.00 57 1013.3
20260904202012 95 305 1.0 5.0 0.00 0.00 0.00 57 1013.4
20260904201512 94 235 0.0 2.0 0.00 0.00 0.00 60 1013.5
20260904201007 95 200 1.0 2.0 0.00 0.00 0.00 57 1013.6
20260904200508 95 209 0.0 2.0 0.00 0.00 0.00 57 1013.5
20260904200023 94 229 0.0 4.0 0.00 0.00 0.00 59 1013.6
20260904195506 94 203 2.0 4.0 0.00 0.00 0.00 59 1013.8
20260904195005 95 194 2.0 3.0 0.00 0.00 0.00 58 1013.9
20260904194516 94 236 0.0 3.0 0.00 0.00 0.00 57 1013.9
20260904194007 95 206 2.0 3.0 0.00 0.00 0.00 54 1013.9